San Diego, CA

6:22 PM PDT on May 25, 2018 (GMT -0700)
San Diego International-Lindbergh

Weather History for KSAN - October, 2012

Change the Weather History Date:

Saturday, October 20, 2012

  Actual Average Record
Temperature  
Mean Temperature 68 °F 66 °F  
Max Temperature 69 °F 73 °F 95 °F (1964)
Min Temperature 66 °F 60 °F 46 °F (1949)
Degree Days  
Heating Degree Days 0 1  
Month to date heating degree days 0 3  
Since 1 July heating degree days 0 5  
Cooling Degree Days 3 2  
Month to date cooling degree days 124 55  
Year to date cooling degree days 866 691  
Growing Degree Days 17 (Base 50)    
Moisture  
Dew Point 61 °F    
Average Humidity 80    
Maximum Humidity 87    
Minimum Humidity 73    
Precipitation  
Precipitation T in 0.03 in 0.95 in (2004)
Month to date precipitation 0.54 0.32  
Year to date precipitation 4.00 7.55  
Since 1 July precipitation 0.54  
Snow  
Snow 0.00 in - - ()
Month to date snowfall 0.0  
Year to date snowfall 0.0  
Snow Depth 0.00 in    
Sea Level Pressure  
Sea Level Pressure 29.90 in    
Wind  
Wind Speed 5 mph (SW)    
Max Wind Speed 10 mph    
Max Gust Speed 13 mph    
Visibility 9 miles    
Events Rain    
T = Trace of Precipitation, MM = Missing Value Source: NWS Daily Summary

Daily Weather History Graph

Daily Weather History Graph

Search for Another Location

Airport or City:

Astronomy

Oct. 20, 2012 Rise Set
Actual Time 6:57 AM PDT 6:09 PM PDT
Civil Twilight 6:32 AM PDT 6:34 PM PDT
Nautical Twilight 6:03 AM PDT 7:03 PM PDT
Astronomical Twilight 5:34 AM PDT 7:31 PM PDT
Moon 12:27 PM PDT (10/20) 11:08 PM PDT (10/20)
Length of Visible Light 12h 02m
Length of Day
11h 12m
Waxing Crescent, 35% of the Moon is Illuminated
Oct 20
Waxing Crescent
Oct 21
First Quarter
Oct 29
Full
Nov 6
Last Quarter
Nov 13
New

Hourly Weather History & Observations

Time (PDT) Temp. Dew Point Humidity Pressure Visibility Wind Dir Wind Speed Gust Speed Precip Events Conditions
12:51 AM 69.1 °F 61.0 °F 75% 29.91 in 10.0 mi North 5.8 mph - N/A   Overcast
1:51 AM 69.1 °F 62.1 °F 78% 29.91 in 10.0 mi WNW 4.6 mph - N/A   Overcast
2:23 AM 68.0 °F 62.6 °F 83% 29.90 in 10.0 mi WNW 5.8 mph - N/A   Overcast
2:51 AM 68.0 °F 61.0 °F 78% 29.90 in 10.0 mi WNW 5.8 mph - N/A   Mostly Cloudy
3:51 AM 68.0 °F 61.0 °F 78% 29.89 in 10.0 mi WNW 6.9 mph - N/A   Overcast
4:51 AM 66.9 °F 61.0 °F 81% 29.90 in 10.0 mi WSW 8.1 mph - N/A   Mostly Cloudy
5:33 AM 66.2 °F 60.8 °F 83% 29.90 in 10.0 mi Calm Calm - N/A   Overcast
5:51 AM 68.0 °F 60.1 °F 76% 29.90 in 10.0 mi Calm Calm - N/A   Overcast
6:12 AM 68.0 °F 60.8 °F 78% 29.91 in 10.0 mi Calm Calm - N/A   Mostly Cloudy
6:51 AM 66.9 °F 61.0 °F 81% 29.91 in 10.0 mi Calm Calm - N/A   Overcast
7:51 AM 66.9 °F 61.0 °F 81% 29.92 in 10.0 mi SW 3.5 mph - 0.00 in   Overcast
8:10 AM 68.0 °F 60.8 °F 78% 29.93 in 10.0 mi Calm Calm - N/A   Overcast
8:31 AM 66.2 °F 62.6 °F 88% 29.94 in 9.0 mi SW 5.8 mph - N/A   Overcast
8:51 AM 66.0 °F 62.1 °F 87% 29.94 in 7.0 mi WSW 5.8 mph - N/A   Overcast
9:02 AM 66.2 °F 62.6 °F 88% 29.94 in 8.0 mi SW 4.6 mph - N/A   Overcast
9:34 AM 66.2 °F 62.6 °F 88% 29.95 in 4.0 mi SW 3.5 mph - 0.00 in Rain Light Rain
9:51 AM 66.0 °F 62.1 °F 87% 29.94 in 4.0 mi SSW 4.6 mph - 0.00 in Rain Light Rain
10:51 AM 66.9 °F 62.1 °F 84% 29.94 in 10.0 mi SW 3.5 mph - 0.00 in   Overcast
11:51 AM 66.0 °F 63.0 °F 90% 29.93 in 5.0 mi SW 5.8 mph - 0.00 in   Overcast
12:06 PM 66.2 °F 62.6 °F 88% 29.93 in 3.0 mi SW 6.9 mph - N/A   Overcast
12:42 PM 66.2 °F 62.6 °F 88% 29.91 in 10.0 mi SW 8.1 mph - N/A   Overcast
12:51 PM 66.0 °F 62.1 °F 87% 29.90 in 10.0 mi SW 6.9 mph - N/A   Overcast
1:32 PM 66.2 °F 60.8 °F 83% 29.89 in 10.0 mi SSW 4.6 mph - N/A   Overcast
1:51 PM 66.9 °F 60.1 °F 79% 29.88 in 10.0 mi SSW 4.6 mph - N/A   Overcast
2:51 PM 68.0 °F 60.1 °F 76% 29.87 in 10.0 mi SSW 6.9 mph - N/A   Overcast
3:51 PM 68.0 °F 60.1 °F 76% 29.87 in 10.0 mi South 8.1 mph - N/A   Mostly Cloudy
4:51 PM 68.0 °F 60.1 °F 76% 29.86 in 10.0 mi SW 8.1 mph - N/A   Overcast
5:51 PM 66.9 °F 60.1 °F 79% 29.86 in 10.0 mi SW 6.9 mph - N/A   Overcast
6:51 PM 66.9 °F 59.0 °F 76% 29.87 in 10.0 mi SSW 9.2 mph - N/A   Overcast
7:51 PM 66.0 °F 61.0 °F 84% 29.88 in 10.0 mi SSW 4.6 mph - 0.00 in   Light Drizzle
8:00 PM 66.2 °F 62.6 °F 88% 29.88 in 2.5 mi SW 9.2 mph - 0.00 in Rain Rain
8:07 PM 64.4 °F 62.6 °F 94% 29.88 in 3.0 mi SSW 10.4 mph - 0.02 in Rain Light Rain
8:16 PM 64.4 °F 62.6 °F 94% 29.88 in 5.0 mi SSW 8.1 mph - 0.02 in Rain Light Rain
8:35 PM 64.4 °F 62.6 °F 94% 29.89 in 7.0 mi SSW 8.1 mph - 0.02 in   Light Drizzle
8:51 PM 64.0 °F 62.1 °F 93% 29.90 in 6.0 mi SW 5.8 mph - 0.02 in   Light Drizzle
9:39 PM 64.4 °F 60.8 °F 88% 29.90 in 10.0 mi South 5.8 mph - 0.00 in   Overcast
9:51 PM 64.9 °F 61.0 °F 87% 29.90 in 9.0 mi SSE 4.6 mph - 0.00 in   Overcast
10:17 PM 66.2 °F 60.8 °F 83% 29.90 in 10.0 mi SSE 6.9 mph - N/A   Overcast
10:51 PM 66.0 °F 61.0 °F 84% 29.90 in 10.0 mi South 6.9 mph - N/A   Overcast
11:51 PM 66.0 °F 61.0 °F 84% 29.90 in 10.0 mi SSE 6.9 mph - N/A   Overcast